USA 153

Last updated on Thu Oct 30 2025 00:02:47 GMT+0000 (Coordinated Universal Time)

1 26575U 00065A 25301.64149017 -.00000311 00000+0 00000+0 0 9993 2 26575 11.2238 37.2769 0001630 195.0971 170.2934 1.00269566 30611
UTC large
Height (km)
Speed (km/s)
/
Latitude / Longitude
Inclination (degrees)
Orbital Period (minutes)
Azimuth
Elevation
Range (km)
Doppler Factor

Next 0 passes for location: London (51.5072 / 0.1276)

Sorry there are no passes over London.